Regional Weather Roundup
Issued by NWS Wilmington, NC

Home | Current Version | Previous Version | Text Only | Print | Product List | Glossary On
Versions: 1 2 3 4 5 6 7 8 9 10 11 12 13 14 15 16 17 18 19 20 21 22 23 24 25 26 27 28 29 30 31 32 33 34 35 36 37 38 39 40 41 42 43 44 45 46 47 48 49 50
000
ASUS42 KILM 280310
RWRILM
RWRILM
REGIONAL HOURLY WEATHER ROUNDUP
NATIONAL WEATHER SERVICE WILMINGTON NC
1100 PM EDT WED AUG 27 2014

NOTE: "FAIR" INDICATES FEW OR NO CLOUDS BELOW 12,000 FEET WITH NO
SIGNIFICANT WEATHER AND/OR OBSTRUCTIONS TO VISIBILITY.

...............WFO WILMINGTON COUNTY WARNING AREA...............

......COASTAL NC AND SC COUNTIES......

CITY           SKY/WX    TMP DP  RH WIND       PRES   REMARKS
WILMINGTON     CLEAR     71  66  84 CALM      29.97F
SOUTHPORT      CLEAR     73  66  77 N3        29.98S
N MYRTLE BEACH NOT AVBL
MYRTLE BEACH   CLEAR     73  66  78 CALM      29.99R

......INLAND NC AND SC COUNTIES.......

CITY           SKY/WX    TMP DP  RH WIND       PRES   REMARKS
LUMBERTON      CLEAR     65  62  90 CALM      29.99R
ELIZABETHTOWN  CLEAR     69  60  73 CALM      29.99S
WHITEVILLE     CLEAR     67  63  87 CALM      29.99R
FLORENCE       CLEAR     67  59  75 N3        30.01R
DARLINGTON     CLEAR     66  59  77 W5        30.02S

....................REST OF NORTH CAROLINA......................

.........EASTERN NC.........

CITY           SKY/WX    TMP DP  RH WIND       PRES   REMARKS
CAPE HATTERAS  CLEAR     73  66  78 N6        29.92S
JACKSONVILLE   CLEAR     66  63  88 CALM      29.97S
MOREHEAD CITY  CLEAR     75  71  87 CALM      29.95S
KENANSVILLE    CLEAR     63  61  94 CALM      29.99S
NEW BERN       CLEAR     73  66  78 W5        29.97S
ELIZABETH CITY CLEAR     65  64  97 CALM      29.93F

.........CENTRAL NC.........

CITY           SKY/WX    TMP DP  RH WIND       PRES   REMARKS
RALEIGH DURHAM PTCLDY    66  60  81 CALM      30.00S
ROCKY MOUNT    CLEAR     66  63  90 CALM      29.97F
ROANOKE RAPIDS NOT AVBL
FAYETTEVILLE   CLEAR     70  64  81 SW3       29.98F
HOFFMAN        CLEAR     66  62  86 NW1       30.02S

.........WESTERN NC.........

CITY           SKY/WX    TMP DP  RH WIND       PRES   REMARKS
CHARLOTTE      CLEAR     66  60  81 W5        30.04S
GREENSBORO     CLEAR     73  63  70 CALM      30.02S
HICKORY        NOT AVBL
BOONE          NOT AVBL
ASHEVILLE      NOT AVBL

.....................REST OF SOUTH CAROLINA.....................

.........EASTERN SC.........

CITY           SKY/WX    TMP DP  RH WIND       PRES   REMARKS
CHARLESTON     CLEAR     74  65  73 CALM      30.01R
BEAUFORT MCAS  CLEAR     75  66  73 CALM      30.01R
HILTON HEAD    NOT AVBL

.........CENTRAL SC.........

CITY           SKY/WX    TMP DP  RH WIND       PRES   REMARKS
COLUMBIA       CLEAR     73  59  61 W3        30.01R
ORANGEBURG     CLEAR     68  62  81 CALM      30.01R
SUMTER SHAW    CLEAR     71  60  69 CALM      30.00R

.........WESTERN SC.........

CITY           SKY/WX    TMP DP  RH WIND       PRES   REMARKS
GREENVILLE     NOT AVBL
ROCK HILL      CLEAR     63  59  87 N3        30.04S
ANDERSON       CLEAR     68  59  73 CALM      30.05S
CLEMSON        NOT AVBL
GREENWOOD      CLEAR     64  56  75 CALM      30.06R


...................COASTAL AND OFFSHORE REPORTS..................

................LOCAL PIERS AND NC RESERVE................


STATION/POSITION TIME  SKY/WX   TEMP    WIND        PRES    VSBY
                                AIR SEA DIR/SP/G
                 (UTC)          (F)     (DEG/KT/KT) (MB)    (MI)
JOHNY MRCER PIER 0300            77 83  340/  6/  8 1014.3S
NC RESRV MASNBRO 0200            75        CALM     1014.0S
OCEAN CREST PIER 0300            75 81  340/  3/  4 1014.3R
SPRINGMAID  PIER 0300            77 81  300/  4/  5 1015.5R


................COASTAL AND OFFSHORE BUOYS................


STATION/POSITION TIME  SKY/WX   TEMP    WIND        PRES    VSBY
                                AIR SEA DIR/SP/G
                 (UTC)          (F)     (DEG/KT/KT) (MB)    (MI)
DIMNDSHOAL 41025 0300            75     340/ 17/ 21 1012.4S
WVE H/P(F/S)=  9/12 WND WVE H/P(F/S)=  5/ 6 SWL H/P/D(F/S/D)=  8/120/12

CAPE LOOKOUT     0200            78     330/  7/  8 1013.9R
ONSLOW BAY 41036 0300            80 80  340/ 12/ 14 1014.4F
WVE H/P(F/S)=  5/11 WND WVE H/P(F/S)=  2/ 4 SWL H/P/D(F/S/D)=  5/130/11

5 WRITEBCH 41038 0300            76 81  360/ 12/ 14   N/A
MASONBORO  41110 0300               81                N/A
WVE H/P(F/S)=  4/13 WND WVE H/P(F/S)=  3/10 SWL H/P/D(F/S/D)=  2/120/13

WILM HARBR 41108 0300               81                N/A
WVE H/P(F/S)=  4/11 WND WVE H/P(F/S)=  3/10 SWL H/P/D(F/S/D)=  2/140/11

27WRITEBCH 41037 0200            78 81  340/ 12/ 14 1014.4R
FRYING PAN 41013 NOT AVBL
SUNST NRSH 41024 0200            80      10/  6/  8 1015.0R
CAPRS NRSH 41029 NOT AVBL
EDISTO     41004 0300            81 82  240/  4/  6 1015.4S
WVE H/P(F/S)=  6/10 WND WVE H/P(F/S)=  2/ 4 SWL H/P/D(F/S/D)=  7/10



..........OFFSHORE BUOYS BEYOND 100 NM OFFSHORE...........
.....IN A TRIANGLE---HAT TO BERMUDA TO BAHAMAS TO HAT.....


STATION/POSITION TIME  SKY/WX   TEMP    WIND        PRES    VSBY
                                AIR SEA DIR/SP/G
                 (UTC)          (F)     (DEG/KT/KT) (MB)    (MI)
150E HAT   41001 NOT AVBL
W BERMUDA  41048 0213            81 79  220/ 35/ 43 1006.9R
WVE H/P(F/S)= 20/11 WND WVE H/P(F/S)= 13/ 8 SWL H/P/D(F/S/D)= 15/240/11

ATLANTIC S 41049 0238            84 85  200/  6/  8 1021.7S
WVE H/P(F/S)=  6/ 8 WND WVE H/P(F/S)=  2/ 4 SWL H/P/D(F/S/D)=  7/200/ 8

E BAHAMAS  41046 0248            84 84  130/ 14/ 17 1018.5F
WVE H/P(F/S)=  5/ 8 WND WVE H/P(F/S)=  3/ 4 SWL H/P/D(F/S/D)=  3/100/ 8

NE BAHAMAS 41047 0217            83 83  200/ 16/ 21 1016.8R
WVE H/P(F/S)=  8/ 8 WND WVE H/P(F/S)=  7/ 7 SWL H/P/D(F/S/D)=  5/150/ 8

120E CANVRL41010 0300            82 84   30/  4/  6 1016.0S
WVE H/P(F/S)=  9/10 WND WVE H/P(F/S)=  2/ 4 SWL H/P/D(F/S/D)=  8/ 40/10


END


USA.gov is the U.S. government's official web portal to all federal, state and local government web resources and services.